Date,TemperatureHighF,TemperatureAvgF,TemperatureLowF,DewpointHighF,DewpointAvgF,DewpointLowF,HumidityHigh,HumidityAvg,HumidityLow,PressureMaxIn,PressureMinIn,WindSpeedMaxMPH,WindSpeedAvgMPH,GustSpeedMaxMPH,PrecipitationSumIn
2013-1-2,42,42,41,30,30,30,64,64,64,30.04,30.03,2,2,2,0.00
2013-1-3,67,44,36,48,26,16,70,49,32,30.17,30.00,5,2,5,0.00
2013-1-4,34,33,32,13,7,-12,41,36,13,30.23,30.16,2,1,2,0.00
2013-1-5,53,41,30,14,0,-11,31,19,10,30.25,30.13,3,0,3,0.00
2013-1-6,70,45,37,25,13,-2,39,29,9,30.16,30.02,7,2,7,0.00
2013-1-7,46,42,32,20,11,10,41,29,23,30.26,30.11,6,4,6,0.00
2013-1-8,46,46,46,10,10,10,23,23,23,30.26,30.26,6,6,6,0.00
2013-1-9,46,46,46,10,10,10,23,23,23,30.26,30.26,6,6,6,0.00
2013-1-10,46,46,46,10,10,10,23,23,23,30.26,30.26,6,6,6,0.00
2013-1-11,62,54,46,54,34,10,76,52,23,30.26,30.04,6,3,0,0.03
2013-1-12,83,63,58,69,53,48,83,72,48,30.11,29.98,0,0,0,0.03
2013-1-13,77,64,58,52,45,37,69,53,29,30.04,29.94,0,0,0,0.00
2013-1-14,64,60,53,57,52,44,79,74,51,30.03,29.94,0,0,0,0.75
2013-1-15,62,57,53,55,50,44,79,76,71,30.03,29.87,0,0,0,0.50
2013-1-16,62,58,57,56,45,3,79,63,10,29.92,29.85,4,0,4,0.11
2013-1-17,57,57,57,50,28,1,78,48,10,30.10,29.64,10,1,10,0.89
2013-1-18,57,57,57,1,1,1,10,10,10,30.36,30.10,5,1,5,0.00
2013-1-23,57,57,57,1,1,1,10,10,10,30.22,30.22,2,2,0,0.00
2013-1-24,57,57,57,1,1,1,10,10,10,30.22,30.22,2,2,0,0.00
2013-1-25,30,30,30,-20,-20,-20,10,10,10,30.21,30.03,6,1,6,0.00
2013-1-26,30,30,30,-20,-20,-20,10,10,10,30.11,29.99,6,2,6,0.00
2013-1-29,30,30,30,-20,-20,-20,10,10,10,30.18,30.12,2,0,2,0.00
2013-1-30,30,30,30,-20,-20,-20,10,10,10,29.84,29.53,11,5,11,1.85
2013-1-31,30,30,30,-20,-20,-20,10,10,10,30.03,29.68,15,4,15,0.14
2013-2-1,30,30,30,-20,-20,-20,10,10,10,30.03,30.03,1,1,1,0.00
2013-2-2,63,39,30,10,-12,-20,25,12,5,30.18,29.99,12,1,12,0.00
2013-2-3,63,46,37,14,-1,-22,33,18,5,29.99,29.86,14,2,14,0.00
2013-2-4,49,42,35,4,-4,-12,20,14,10,30.00,29.90,4,1,4,0.00
2013-2-5,58,50,39,20,5,-8,28,16,12,29.94,29.85,6,1,6,0.00
2013-2-6,52,51,51,20,19,19,28,28,28,29.94,29.93,0,0,0,0.00
2013-2-8,50,45,43,100,12,9,53,24,23,31.79,29.97,4,1,24,0.00
2013-2-9,68,59,39,17,-2,-9,30,11,5,30.17,30.02,6,2,6,0.00
2013-2-10,63,63,63,-9,-9,-9,5,5,5,30.09,30.09,2,2,2,0.00
2013-2-11,63,63,63,-9,-9,-9,5,5,5,30.09,30.09,2,2,0,0.00
2013-2-12,63,63,63,53,24,-9,71,40,5,31.66,30.09,2,2,0,0.00
2013-2-13,63,47,40,100,34,26,71,62,56,31.66,29.66,12,3,12,0.08
2013-2-14,71,47,36,34,25,8,58,45,11,29.96,29.82,5,1,5,0.00
2013-2-15,70,52,38,44,34,29,70,52,30,30.00,29.87,9,2,9,0.00
2013-2-16,56,44,32,32,22,9,59,44,26,29.99,29.82,13,3,13,0.00
2013-2-17,57,39,27,23,13,8,46,35,21,30.14,29.98,12,2,12,0.00
2013-2-18,66,45,30,29,19,-20,48,36,10,30.22,30.04,7,1,7,0.00
2013-2-19,59,47,42,46,31,20,76,55,35,30.04,29.88,11,2,11,0.30
2013-2-20,62,45,34,27,17,13,46,34,22,30.04,29.97,7,2,7,0.00
2013-2-21,69,52,36,31,20,11,43,30,17,30.06,29.86,6,2,6,0.00
2013-2-22,52,42,40,42,40,31,99,94,44,30.06,29.95,10,2,10,1.41
2013-2-23,47,45,41,47,44,40,99,99,98,29.96,29.82,5,1,5,0.77
2013-2-24,71,53,47,54,45,37,99,79,43,29.90,29.84,6,1,6,0.00
2013-2-25,51,46,39,37,33,29,85,61,52,29.94,29.79,8,3,8,0.00
2013-2-26,47,40,36,100,40,35,99,99,85,31.31,29.50,9,3,9,1.22
2013-2-27,61,49,40,46,41,37,99,78,52,29.78,29.66,10,4,10,0.00
2013-2-28,50,44,38,39,32,26,74,63,55,29.86,29.72,8,3,8,0.00
2013-3-1,45,41,36,31,29,26,71,63,57,29.87,29.82,7,2,7,0.00
2013-3-2,67,42,37,31,26,-6,62,56,5,29.89,29.81,8,1,8,0.00
2013-3-3,54,37,33,26,21,17,62,52,32,29.94,29.85,12,3,12,0.00
2013-3-4,65,46,31,33,24,17,58,43,25,30.04,29.91,8,1,8,0.00
2013-3-5,67,55,42,100,36,27,71,50,29,31.81,29.73,10,3,10,0.00
2013-3-6,45,39,34,29,25,19,61,56,52,30.03,29.75,15,4,15,0.00
2013-3-7,66,50,34,42,30,23,67,49,32,30.12,30.00,6,1,6,0.00
2013-3-8,61,61,61,33,33,33,35,35,35,30.04,30.04,0,0,2,0.00
2013-3-9,61,61,61,33,33,33,35,35,35,30.04,30.04,0,0,2,0.00
2013-3-10,66,63,55,100,36,33,100,36,35,30.40,30.04,7,3,7,0.00
2013-3-11,66,62,54,59,46,38,99,62,36,30.09,29.73,9,4,9,1.02
2013-3-12,68,54,42,56,40,32,99,63,36,29.97,29.73,9,3,9,0.03
2013-3-13,65,48,40,35,27,17,59,45,25,30.16,29.88,8,2,8,0.00
2013-3-14,64,47,34,30,19,15,47,34,21,30.22,30.08,12,2,12,0.00
2013-3-15,77,58,41,40,32,17,56,38,23,30.10,29.87,9,2,9,0.00
2013-3-16,84,67,55,45,38,30,54,36,17,29.90,29.77,13,4,13,0.00
2013-3-17,75,65,56,53,45,36,63,49,35,29.92,29.81,6,2,6,0.00
2013-3-18,61,53,46,53,44,41,84,73,57,29.93,29.75,8,2,8,0.39
2013-3-19,74,57,47,44,37,24,84,53,25,29.96,29.79,10,2,10,0.00
2013-3-20,64,53,45,25,21,14,41,29,20,30.00,29.77,11,2,11,0.00
2013-3-21,59,46,36,22,16,10,44,31,20,29.85,29.77,10,3,10,0.00
2013-3-22,52,46,39,29,20,11,47,37,29,29.95,29.84,5,1,5,0.00
2013-3-23,53,49,43,52,42,29,99,80,47,29.92,29.75,6,1,6,0.78
2013-3-24,49,48,44,48,47,43,99,99,89,29.77,29.46,14,1,14,0.20
2013-3-25,45,40,37,43,28,23,96,63,48,29.93,29.59,15,5,15,0.03
2013-3-26,46,39,33,28,25,21,67,57,49,30.14,29.90,12,3,12,0.00
2013-3-27,63,46,33,34,26,21,63,46,30,30.19,30.08,8,2,8,0.00
2013-3-28,69,51,36,36,27,22,57,41,23,30.20,30.08,9,2,9,0.00
2013-3-29,72,57,42,37,30,25,54,38,23,30.22,30.06,7,1,7,0.00
2013-3-30,79,63,57,50,35,30,65,36,30,30.08,29.94,5,2,5,0.28
2013-3-31,65,62,58,55,53,49,79,72,65,29.94,29.84,7,1,7,0.22
2013-4-1,79,69,60,54,48,38,68,50,32,29.93,29.88,6,1,6,0.03
2013-4-2,76,60,7,42,34,-34,56,41,13,30.06,29.92,7,2,7,0.00
2013-4-3,63,56,50,38,30,24,61,37,30,30.08,29.97,7,1,7,0.08
2013-4-4,50,45,41,43,40,37,99,84,61,30.06,29.87,7,1,7,0.28
2013-4-5,69,54,41,54,41,36,93,64,36,29.95,29.83,4,0,4,0.03
2013-4-6,84,62,46,46,35,30,60,40,20,30.10,29.95,6,1,6,0.00
2013-4-7,82,65,51,52,41,32,59,42,30,30.12,29.97,7,1,7,0.00
2013-4-8,81,71,58,56,51,43,75,50,38,30.06,29.98,6,2,6,0.00
2013-4-9,79,78,70,54,53,52,54,41,40,30.05,30.00,2,2,2,0.00
2013-4-10,94,78,62,63,56,52,75,48,32,30.05,29.97,4,1,4,0.00
2013-4-11,86,85,65,67,58,57,99,41,37,30.01,29.62,7,1,7,1.33
2013-4-12,72,64,57,65,56,43,99,80,47,29.81,29.57,45,2,45,0.36
2013-4-13,81,70,50,52,45,42,76,44,30,29.93,29.80,6,1,6,0.00
2013-4-14,78,70,58,55,48,44,85,51,30,29.96,29.82,5,1,5,0.03
2013-4-15,77,67,58,63,57,54,89,73,54,30.04,29.84,4,1,4,0.00
2013-4-16,80,65,30,61,59,-20,88,81,5,30.17,30.04,5,1,5,0.00
2013-4-17,75,30,30,-1,-20,-20,10,10,5,30.14,29.99,6,1,6,0.00
2013-4-18,30,30,30,-20,-20,-20,10,10,10,30.01,29.85,6,1,6,0.00
2013-4-19,30,30,30,-20,-20,-20,10,10,10,29.91,29.73,12,3,12,0.55
2013-4-20,30,30,30,-20,-20,-20,10,10,10,30.11,29.91,7,1,7,0.00
2013-4-21,30,30,30,-20,-20,-20,10,10,10,30.22,30.11,5,0,5,0.00
2013-4-22,30,30,30,-20,-20,-20,10,10,10,30.11,30.03,5,1,5,0.00
2013-4-23,30,30,30,-20,-20,-20,10,10,10,30.11,29.95,5,1,5,0.00
2013-4-24,30,30,30,-20,-20,-20,10,10,10,30.01,29.94,8,1,8,0.09
2013-4-25,30,30,30,-20,-20,-20,10,10,10,30.18,30.00,8,2,8,0.00
2013-4-26,30,30,30,-20,-20,-20,10,10,10,30.25,30.13,6,1,6,0.00
2013-4-27,30,30,30,-20,-20,-20,10,10,10,30.20,30.05,5,2,5,0.06
2013-4-28,58,39,-59,55,4,-100,94,37,5,30.08,29.30,5,1,5,1.83
2013-4-29,72,63,56,62,57,53,94,82,62,29.95,29.83,4,0,4,0.00
2013-4-30,81,69,61,56,32,-1,78,47,5,30.00,29.85,4,0,4,0.00
2013-5-1,79,73,61,53,9,-1,74,16,5,30.09,29.99,6,1,6,0.00
2013-5-2,65,61,59,59,56,52,87,82,74,30.09,30.01,5,2,5,0.00
2013-5-3,61,60,58,57,55,53,90,86,77,30.03,29.88,5,2,5,0.06
2013-5-4,59,53,50,55,52,49,99,95,82,29.88,29.75,6,2,6,1.94
2013-5-5,64,57,53,63,57,53,99,99,99,29.75,29.67,6,1,6,1.77
2013-5-6,58,54,48,58,52,48,99,96,88,29.81,29.70,7,1,7,0.03
2013-5-7,69,61,53,60,54,51,97,82,64,29.88,29.75,6,1,6,0.06
2013-5-8,78,68,61,61,56,54,78,67,50,29.96,29.88,7,1,7,0.00
2013-5-9,84,72,59,63,57,53,86,62,43,30.01,29.92,6,1,6,0.00
2013-5-10,69,66,66,56,55,55,69,69,65,30.00,29.97,1,0,1,0.00
2013-5-11,77,71,66,65,49,0,80,59,5,29.97,29.80,7,1,7,0.47
2013-5-12,76,65,57,60,47,34,79,55,31,29.98,29.81,8,2,8,0.00
2013-5-13,72,60,48,41,36,33,58,42,28,30.11,29.97,12,1,12,0.00
2013-5-14,81,66,50,52,44,36,59,46,32,30.15,30.00,7,1,7,0.00
2013-5-15,88,74,63,59,53,50,66,50,33,30.06,29.92,7,2,7,0.00
2013-5-16,85,74,66,62,56,51,66,55,43,30.00,29.89,6,1,6,0.00
2013-5-17,84,74,65,62,56,51,66,54,40,30.01,29.92,6,1,6,0.00
2013-5-18,75,70,68,64,62,59,81,75,60,30.02,29.94,5,0,5,0.28
2013-5-19,71,68,66,100,65,63,99,91,78,30.01,29.89,6,1,6,3.60
2013-5-20,81,70,66,100,68,66,99,93,61,31.72,29.91,4,0,4,0.00
2013-5-21,88,78,69,74,68,65,89,73,55,29.97,29.82,4,0,4,0.00
2013-5-22,91,77,68,74,66,62,84,68,51,29.90,29.77,5,1,5,0.00
2013-5-23,86,76,69,67,61,54,85,62,44,29.88,29.80,8,2,8,0.11
2013-5-24,80,71,62,56,49,40,68,47,31,30.09,29.86,8,2,8,0.00
2013-5-25,82,68,54,51,44,39,59,43,29,30.20,30.07,7,1,7,0.00
2013-5-26,85,73,58,56,49,43,66,44,32,30.16,30.03,5,1,5,0.00
2013-5-27,90,75,63,62,55,48,66,51,37,30.13,30.00,5,0,5,0.00
2013-5-28,92,77,67,67,59,56,70,54,38,30.10,30.02,5,1,5,0.00
2013-5-29,90,77,66,65,60,55,72,57,43,30.12,30.02,5,1,5,0.00
2013-5-30,86,76,68,67,62,58,79,63,49,30.15,30.05,4,0,4,0.00
2013-5-31,91,79,69,70,64,61,79,61,45,30.12,30.00,5,1,5,0.00
2013-6-1,86,77,70,68,63,12,76,63,10,30.04,29.91,4,0,4,0.00
2013-6-2,86,77,72,70,66,63,79,70,55,29.94,29.82,5,1,5,0.00
2013-6-3,84,76,69,73,66,63,83,71,53,29.89,29.80,2,0,2,0.00
2013-6-4,88,79,69,70,65,60,77,63,52,29.93,29.86,0,0,0,0.00
2013-6-5,85,76,73,72,67,65,82,74,61,29.97,29.83,0,0,0,0.00
2013-6-6,76,72,69,71,66,64,87,83,72,29.85,29.69,3,0,3,0.00
2013-6-7,85,75,70,72,67,65,86,77,59,29.78,29.62,5,0,5,0.00
2013-6-8,84,75,68,72,66,63,83,73,58,30.02,29.77,4,0,4,0.00
2013-6-9,87,76,71,76,70,65,99,83,61,30.03,29.93,0,0,0,0.00
2013-6-10,77,73,70,74,70,68,99,92,80,29.96,29.87,6,1,6,0.00
2013-6-11,87,79,72,76,71,68,89,77,61,29.98,29.87,7,2,7,0.00
2013-6-12,93,83,74,77,72,68,85,69,53,29.97,29.87,2,0,2,0.00
2013-6-13,93,83,76,73,69,21,77,63,10,29.88,29.67,12,1,12,0.00
2013-6-14,92,79,70,68,63,59,77,60,41,29.92,29.76,2,0,2,0.00
2013-6-15,94,79,68,67,60,57,67,54,39,30.06,29.92,2,0,2,0.00
2013-6-16,90,79,68,71,64,56,76,61,48,30.08,29.93,6,0,6,0.00
2013-6-17,85,76,70,79,70,15,98,83,10,30.03,29.87,6,0,6,0.00
2013-6-18,84,76,71,75,70,66,86,81,68,29.90,29.77,4,0,4,0.00
2013-6-19,81,76,72,72,69,66,86,77,68,30.00,29.83,0,0,0,0.00
2013-6-20,74,72,72,66,65,65,78,78,76,30.00,30.00,0,0,0,0.00
2013-6-21,84,75,72,66,65,62,78,71,53,30.11,30.00,3,0,3,0.00
2013-6-22,91,78,69,69,64,60,76,62,47,30.14,30.00,2,0,2,0.00
2013-6-23,88,79,71,72,66,62,76,65,54,30.12,30.02,2,0,2,0.00
2013-6-24,87,80,73,72,68,65,79,69,57,30.14,30.03,2,0,2,0.00
2013-6-25,89,81,74,71,68,65,78,65,53,30.09,29.95,1,0,1,0.00
2013-6-26,90,82,75,73,69,65,78,65,51,30.00,29.86,6,0,6,0.00
2013-6-27,90,83,77,73,70,67,77,66,53,29.91,29.72,0,0,0,0.00
2013-6-28,92,84,76,73,69,65,79,63,46,29.78,29.58,0,0,0,0.00
2013-6-29,90,80,74,70,66,61,76,61,45,29.66,29.59,0,0,0,0.00
2013-6-30,86,79,73,70,66,63,76,65,50,29.73,29.62,1,0,1,0.00
2013-7-1,87,77,71,71,66,63,79,69,55,29.85,29.71,5,0,5,0.00
2013-7-2,92,80,72,70,66,64,79,64,47,30.00,29.84,3,0,3,0.00
2013-7-3,77,74,69,77,70,65,99,90,68,30.09,29.99,4,0,4,0.00
2013-7-4,77,72,69,75,71,68,99,97,92,30.11,30.02,4,1,4,0.00
2013-7-5,82,75,71,77,72,16,99,91,10,30.11,30.03,4,1,4,0.97
2013-7-6,86,75,70,81,71,67,95,87,69,30.08,29.98,2,0,2,0.41
2013-7-7,80,77,73,74,71,69,90,83,76,30.09,30.01,4,0,4,0.03
2013-7-8,90,79,74,79,71,69,86,78,60,30.11,30.00,4,0,4,0.03
2013-7-9,89,81,76,75,72,69,82,75,58,30.08,29.97,5,1,5,0.19
2013-7-10,90,80,76,80,72,68,85,76,63,30.02,29.88,5,0,5,0.00
2013-7-11,81,77,73,73,70,67,83,78,74,29.89,29.79,2,0,2,0.00
2013-7-12,78,75,72,70,68,65,83,79,75,29.88,29.81,4,0,4,0.00
2013-7-13,77,72,70,72,67,64,99,85,76,29.98,29.87,4,0,4,0.19
2013-7-14,81,75,72,76,72,70,99,89,80,30.12,29.97,5,1,5,0.22
2013-7-15,88,77,72,78,71,66,92,82,66,30.19,30.11,2,0,2,0.00
2013-7-16,93,81,73,77,69,66,85,69,54,30.23,30.14,5,0,5,0.00
2013-7-17,93,81,73,75,69,64,85,68,49,30.20,30.03,4,0,4,1.72
2013-7-18,92,81,72,77,71,66,86,73,55,30.15,29.97,2,0,2,0.03
2013-7-19,91,83,76,75,71,68,81,67,55,30.06,29.91,2,0,2,0.00
2013-7-20,82,78,76,70,69,68,77,73,68,29.97,29.88,2,0,2,0.00
2013-7-21,91,80,74,74,70,67,83,71,53,29.97,29.84,5,1,5,0.50
2013-7-22,86,77,72,74,70,67,86,79,63,29.95,29.82,13,1,13,0.08
2013-7-23,85,78,72,72,69,67,84,75,59,29.90,29.76,7,2,7,0.00
2013-7-24,89,79,73,73,69,64,84,72,57,29.82,29.74,7,2,7,0.00
2013-7-25,91,80,72,73,68,62,82,66,50,29.93,29.77,4,0,4,0.50
2013-7-26,92,80,71,74,68,63,80,67,50,30.00,29.90,2,1,2,0.00
2013-7-27,81,78,76,67,66,65,72,66,60,29.87,29.83,3,0,3,0.00
2013-7-28,91,80,71,71,67,64,81,65,48,29.96,29.85,6,1,6,0.00
2013-7-29,90,80,73,67,62,56,74,57,38,30.04,29.94,5,1,5,0.00
2013-7-30,93,80,67,100,62,55,101,56,41,30.33,30.02,4,0,4,0.00
2013-7-31,80,78,75,69,67,64,77,69,59,30.08,29.86,5,0,5,0.11
2013-8-1,88,80,74,74,70,68,82,72,56,29.93,29.83,5,1,5,0.44
2013-8-2,94,82,72,74,68,64,76,62,48,29.95,29.85,4,0,4,0.00
2013-8-3,89,81,72,69,66,63,75,62,47,29.99,29.92,6,1,6,0.00
2013-8-4,92,82,76,72,68,63,76,62,48,29.95,29.87,5,1,5,0.00
2013-8-5,93,81,73,73,66,62,72,61,48,29.99,29.90,3,0,3,0.00
2013-8-6,92,83,77,73,69,66,77,64,46,29.95,29.88,5,0,5,0.00
2013-8-7,81,77,73,80,72,69,99,85,69,30.00,29.91,2,0,2,1.03
2013-8-8,86,78,74,78,73,70,88,85,74,30.00,29.94,5,0,5,0.17
2013-8-9,93,83,75,77,72,70,88,72,55,30.02,29.94,6,1,6,0.03
2013-8-10,93,83,76,75,71,69,79,68,51,30.05,29.99,5,0,5,0.00
2013-8-11,94,83,75,74,70,67,80,65,49,30.09,29.97,5,1,5,0.00
2013-8-12,93,82,76,74,70,67,79,66,51,30.03,29.91,6,1,6,0.03
2013-8-13,88,80,75,73,70,67,81,72,55,29.94,29.78,6,1,6,0.22
2013-8-14,85,78,72,73,69,63,78,74,66,29.95,29.81,2,0,2,0.00
2013-8-15,79,73,69,65,61,57,80,67,52,30.01,29.93,7,2,7,0.00
2013-8-16,69,68,63,63,60,57,88,77,66,30.03,29.95,2,1,2,0.00
2013-8-17,67,65,62,63,61,58,90,86,79,30.07,30.00,0,0,0,0.39
2013-8-18,74,70,66,71,67,63,92,89,87,30.12,30.01,2,0,2,1.00
2013-8-19,77,72,70,73,69,67,93,90,85,30.07,29.99,2,0,2,0.44
2013-8-20,80,74,71,74,70,68,91,87,79,30.10,30.00,2,0,2,0.00
2013-8-21,80,75,72,74,71,68,93,88,82,30.17,30.05,2,0,2,0.78
2013-8-22,92,80,71,76,70,66,88,75,55,30.10,29.97,0,0,0,0.61
2013-8-23,92,80,71,75,70,67,87,73,53,30.02,29.90,3,0,3,0.03
2013-8-24,91,80,71,70,66,63,81,65,49,30.15,29.96,1,0,1,0.00
2013-8-25,90,77,67,68,62,58,74,61,45,30.26,30.15,4,1,4,0.00
2013-8-26,90,76,66,66,60,56,74,58,43,30.23,30.06,5,0,5,0.00
2013-8-27,92,79,68,67,62,57,72,57,43,30.09,29.94,1,0,1,0.00
2013-8-28,94,82,72,73,66,61,76,61,43,29.99,29.88,4,0,4,0.00
2013-8-29,94,83,74,100,69,65,78,63,35,30.30,29.83,5,1,5,0.00
2013-8-30,88,81,75,74,70,68,80,71,60,29.98,29.84,2,0,2,0.00
2013-8-31,94,81,75,76,70,17,79,69,10,29.92,29.81,6,0,6,0.00
2013-9-1,87,77,74,75,70,66,88,80,64,29.86,29.78,0,0,0,0.53
2013-9-2,82,76,73,72,70,68,85,80,69,29.90,29.78,0,0,0,0.00
2013-9-3,92,82,73,74,69,66,84,65,48,29.91,29.80,5,1,5,0.00
2013-9-4,94,82,71,74,66,62,78,61,43,30.00,29.88,2,0,2,0.00
2013-9-5,96,82,73,73,67,63,73,60,44,30.06,29.93,3,0,3,0.00
2013-9-6,95,81,72,68,64,61,74,58,40,30.09,29.99,3,0,3,0.00
2013-9-7,93,79,70,69,63,59,73,58,42,30.04,29.92,4,0,4,0.00
2013-9-8,94,80,70,72,64,59,72,59,43,29.96,29.84,0,0,0,0.03
2013-9-9,98,83,74,73,65,63,71,57,38,30.03,29.91,0,0,0,0.00
2013-9-10,95,82,73,74,66,62,72,57,44,30.14,30.02,0,0,0,0.00
2013-9-11,97,83,72,72,64,61,71,55,37,30.14,30.01,0,0,0,0.00
2013-9-12,86,80,75,68,64,59,59,57,54,30.02,29.83,0,0,0,0.00
2013-9-13,92,81,73,67,60,52,71,51,34,29.87,29.73,7,1,7,0.00
2013-9-14,89,75,62,58,53,48,62,48,33,29.99,29.83,6,1,6,0.00
2013-9-15,85,75,67,67,60,54,68,60,50,30.09,29.99,3,0,3,0.00
2013-9-16,90,80,72,69,63,59,70,57,40,30.08,29.97,1,0,1,0.00
2013-9-17,80,76,70,60,58,57,66,55,46,30.15,30.02,5,2,5,0.00
2013-9-18,82,79,76,60,58,57,55,48,46,30.14,30.06,3,2,3,0.00
2013-9-19,87,78,75,62,59,58,56,53,40,30.06,29.99,1,0,1,0.00
2013-9-20,92,78,68,66,60,56,68,54,38,30.83,29.85,3,0,3,0.00
2013-9-21,76,72,68,68,63,60,85,74,58,29.87,29.67,4,0,4,1.36
2013-9-22,84,72,63,70,60,56,86,68,50,29.81,29.68,4,0,4,0.00
2013-9-23,85,72,64,67,58,55,77,63,46,29.96,29.79,1,0,1,0.00
2013-9-24,76,69,66,64,59,56,79,71,59,29.97,29.85,2,0,2,0.03
2013-9-25,68,66,65,62,61,60,86,83,79,29.85,29.48,4,1,4,0.67
2013-9-26,78,69,65,66,62,60,85,77,62,29.92,29.77,0,0,0,0.00
2013-9-27,84,71,61,63,58,53,76,63,45,30.05,29.92,5,0,5,0.00
2013-9-28,85,69,60,61,54,51,76,61,40,30.13,30.01,5,1,5,0.00
2013-9-29,81,68,58,60,53,49,74,60,43,30.07,29.94,5,0,5,0.00
2013-9-30,80,69,59,60,54,50,75,60,45,30.00,29.90,3,0,3,0.00
2013-10-1,85,71,61,100,56,51,75,59,44,30.30,29.96,4,0,4,0.00
2013-10-2,86,73,63,65,57,51,75,59,41,30.07,29.97,4,0,4,0.00
2013-10-3,90,75,66,65,58,55,73,57,39,30.06,29.95,4,0,4,0.00
2013-10-4,89,75,65,65,59,53,74,59,44,30.08,29.97,3,0,3,0.00
2013-10-5,93,77,66,66,60,55,77,57,37,30.15,29.93,2,0,2,0.00
2013-10-6,91,76,68,67,60,57,78,59,37,29.95,29.78,5,1,5,1.69
2013-10-7,81,70,65,67,61,54,88,74,48,29.87,29.75,4,0,4,0.36
2013-10-8,81,68,61,59,54,51,77,62,44,30.05,29.68,6,2,6,0.00
2013-10-9,82,67,56,55,50,42,66,54,37,30.10,30.00,6,1,6,0.00
2013-10-10,78,64,58,56,50,47,69,60,47,30.04,29.90,2,0,2,0.00
2013-10-11,86,71,59,61,53,46,70,55,40,29.98,29.88,6,1,6,0.00
2013-10-12,88,72,61,61,54,48,70,55,38,30.00,29.90,5,1,5,0.00
2013-10-13,85,73,64,63,57,52,72,59,46,30.11,30.00,5,0,5,0.00
2013-10-14,77,71,66,62,59,57,75,66,56,30.12,30.03,5,1,5,0.00
2013-10-15,70,67,64,59,57,55,76,70,63,30.07,29.98,4,0,4,0.00
2013-10-16,76,68,62,60,56,53,75,66,56,30.00,29.83,4,0,4,0.00
2013-10-17,70,68,66,64,60,57,81,77,70,29.90,29.81,5,0,5,0.39
2013-10-18,75,65,57,59,54,49,77,68,51,29.94,29.84,4,0,4,0.00
2013-10-19,64,62,59,55,52,49,75,71,66,29.89,29.83,5,0,5,0.06
2013-10-20,77,62,53,56,48,42,75,60,36,29.97,29.88,4,1,4,0.00
2013-10-21,70,60,51,57,49,40,76,67,56,30.04,29.93,2,0,2,0.00
2013-10-22,72,64,60,57,53,48,75,67,54,29.95,29.77,5,0,5,0.00
2013-10-23,70,58,50,48,41,31,72,55,35,29.98,29.75,10,2,10,0.00
2013-10-24,70,55,44,43,35,29,61,49,33,30.09,29.97,7,1,7,0.00
2013-10-25,67,52,39,36,31,24,65,46,29,30.23,30.06,7,1,7,0.00
2013-10-26,64,46,36,37,32,28,74,59,33,30.23,30.05,5,1,5,0.00
2013-10-27,69,54,43,51,43,34,85,68,49,30.06,29.99,7,1,7,0.00
2013-10-28,64,55,54,54,52,50,93,89,67,30.17,30.03,1,0,1,0.06
2013-10-29,74,60,53,58,54,50,94,80,54,30.23,30.13,4,0,4,0.00
2013-10-30,81,65,56,56,54,52,88,71,40,30.20,30.06,5,0,5,0.00
2013-10-31,74,66,58,60,56,50,77,69,60,30.09,29.81,6,1,6,0.00
2013-11-1,79,66,55,65,57,44,99,74,41,29.81,29.64,9,1,9,0.42
2013-11-2,73,56,47,48,42,35,84,60,30,29.94,29.72,12,1,12,0.00
2013-11-3,70,52,42,42,37,32,82,58,29,30.18,29.93,6,0,6,0.00
2013-11-4,65,51,42,39,35,31,75,57,33,30.33,30.18,6,1,6,0.00
2013-11-5,56,52,47,37,34,30,57,51,41,30.35,30.24,5,1,5,0.00
2013-11-6,74,62,51,55,48,37,88,61,51,30.25,30.09,4,1,4,0.00
2013-11-7,72,61,41,60,47,31,97,61,35,30.09,29.94,8,2,8,0.06
2013-11-8,68,48,36,32,28,17,75,49,17,30.21,30.08,8,1,8,0.00
2013-11-9,62,48,39,37,33,28,69,56,35,30.24,30.10,5,0,5,0.00
2013-11-10,59,51,49,37,37,32,59,57,35,30.15,30.10,2,0,2,0.00
2013-11-11,69,52,43,34,31,27,66,48,24,30.21,30.06,4,1,4,0.00
2013-11-12,65,46,33,42,30,15,74,53,35,30.29,30.01,11,2,11,0.00
2013-11-13,56,39,28,18,14,5,59,39,13,30.42,30.29,5,1,5,0.00
2013-11-14,64,44,29,24,18,14,62,37,16,30.36,30.18,4,1,4,0.00
2013-11-15,49,45,40,48,34,21,99,66,40,30.20,30.06,4,0,4,0.19
2013-11-16,58,53,48,57,52,48,99,97,93,30.13,29.95,2,0,2,0.00
2013-11-17,65,59,55,65,58,54,99,97,94,30.09,29.84,7,1,7,0.19
2013-11-18,74,62,48,65,48,29,99,66,21,29.93,29.81,10,2,10,0.06
2013-11-19,63,49,39,34,30,26,68,49,30,30.06,29.91,4,1,4,0.00
2013-11-20,58,47,38,31,28,25,62,48,32,30.21,30.05,6,2,6,0.00
2013-11-21,52,49,46,45,39,31,87,69,50,30.28,30.19,5,2,5,0.00
2013-11-22,61,55,49,57,52,46,99,91,80,30.25,30.06,3,0,3,0.08
2013-11-23,61,54,41,57,45,25,99,75,39,30.11,30.00,6,2,6,0.03
2013-11-24,55,41,32,25,18,10,53,41,21,30.31,30.09,5,1,5,0.00
2013-11-25,43,36,29,24,12,9,65,38,30,30.32,29.70,8,2,8,0.00
2013-11-26,47,38,32,100,37,24,99,97,65,31.70,29.55,5,2,5,1.55
2013-11-27,45,36,26,44,28,14,99,75,47,30.12,29.52,10,3,10,0.17
2013-11-28,56,36,22,24,19,14,73,53,23,30.32,30.08,5,1,5,0.00
2013-11-29,67,43,27,28,21,15,71,46,14,30.37,30.26,4,1,4,0.00
2013-11-30,56,40,33,26,24,22,66,53,30,30.42,30.21,5,1,5,0.00
2013-12-1,58,46,41,38,30,23,68,53,43,30.21,29.91,4,0,4,0.00
2013-12-2,51,48,44,51,44,35,99,88,68,29.91,29.73,4,0,4,0.25
2013-12-3,54,52,49,54,51,49,99,99,93,29.85,29.75,2,0,2,0.36
2013-12-4,64,57,52,64,56,52,99,99,99,29.95,29.82,3,1,3,0.08
2013-12-5,71,66,58,71,65,58,99,99,97,30.00,29.91,6,1,6,1.02
2013-12-6,74,68,59,68,64,57,99,88,70,29.98,29.90,9,2,9,0.14
2013-12-7,60,48,43,60,45,40,99,87,74,30.19,29.95,5,1,5,0.00
2013-12-8,49,43,38,46,42,38,99,98,86,30.20,30.08,7,3,7,0.00
2013-12-9,48,43,38,48,42,38,99,99,98,30.11,29.93,6,1,6,0.00
2013-12-10,55,44,32,49,37,25,99,78,45,30.22,29.86,10,2,10,0.00
2013-12-11,59,42,29,30,24,-7,84,56,10,30.31,30.16,2,0,2,0.00
2013-12-12,47,47,47,-7,-7,-7,10,10,10,30.30,30.20,6,1,6,0.00
2013-12-13,47,40,30,-7,-12,-20,10,10,10,30.25,30.05,4,1,4,0.00
2013-12-14,30,30,30,-20,-20,-20,10,10,10,30.07,29.73,5,1,5,1.02
2013-12-15,30,30,30,-20,-20,-20,10,10,10,30.06,29.74,8,3,8,0.51
2013-12-16,43,32,30,27,-10,-20,62,21,10,30.13,30.04,7,2,7,0.00
2013-12-17,66,48,35,35,30,26,72,51,30,30.14,29.99,12,2,12,0.00
2013-12-18,60,43,33,30,20,13,57,41,17,30.22,30.05,8,1,8,0.00
2013-12-19,67,46,31,30,23,17,73,43,17,30.23,30.10,4,1,4,0.00
2013-12-20,61,49,40,47,36,25,82,62,49,30.14,30.06,3,1,3,0.00
2013-12-21,67,57,50,65,54,44,99,90,81,30.07,29.90,6,2,6,0.03
2013-12-22,67,60,56,65,59,56,99,96,88,30.00,29.85,7,1,7,3.02
2013-12-23,56,49,36,56,46,30,99,90,69,30.12,29.97,8,2,8,0.14
2013-12-24,50,36,28,30,23,18,83,63,32,30.27,30.12,7,2,7,0.00
2013-12-25,49,35,26,21,17,14,66,49,31,30.38,30.23,6,1,6,0.00
2013-12-26,61,41,30,29,23,17,66,49,25,30.26,30.15,4,1,4,0.00
2013-12-27,58,41,33,27,24,-8,69,53,10,30.35,30.20,4,1,4,0.72
2013-12-28,44,39,33,38,30,24,99,73,51,30.30,29.92,5,1,5,0.80
2013-12-29,58,44,38,50,41,38,99,90,57,29.97,29.78,8,2,8,0.39
2013-12-30,50,43,38,42,38,35,96,84,65,30.11,29.95,7,1,7,0.00
2013-12-31,50,40,35,35,27,21,83,62,35,30.26,30.10,7,1,7,0.00
2014-1-1,48,42,38,35,28,24,72,58,48,30.34,30.05,3,0,3,0.00
2014-1-2,48,40,24,48,36,10,99,85,54,30.05,29.68,13,2,13,0.25